WX9WTF Weather Reports


Display with metric or nautical units.
time (UTC)temp
F
wind
direction
speed
MPH
gust
MPH
rain 1hr
in
rain 24hr
in
rain mn
in
humidity
%
barometer
mb
20260510231400 66 18 1.0 5.0 0.00 0.00 0.00 37 1021.8
20260510230857 67 45 5.0 6.0 0.00 0.00 0.00 35 1021.8
20260510230351 68 26 5.0 8.0 0.00 0.00 0.00 34 1021.8
20260510225849 69 62 2.0 7.0 0.00 0.00 0.00 33 1021.9
20260510225345 70 352 5.0 5.0 0.00 0.00 0.00 32 1022.0
20260510224841 69 30 2.0 5.0 0.00 0.00 0.00 35 1021.9
20260510224337 69 58 2.0 4.0 0.00 0.00 0.00 34 1021.9
20260510223834 69 43 5.0 6.0 0.00 0.00 0.00 31 1022.1
20260510223332 69 76 3.0 3.0 0.00 0.00 0.00 34 1022.0
20260510222829 69 336 5.0 7.0 0.00 0.00 0.00 31 1021.9
20260510222326 70 26 6.0 7.0 0.00 0.00 0.00 33 1022.2
20260510221826 70 43 3.0 6.0 0.00 0.00 0.00 33 1022.1
20260510221323 69 24 3.0 6.0 0.00 0.00 0.00 30 1022.1
20260510220819 69 56 2.0 4.0 0.00 0.00 0.00 34 1022.2
20260510220315 69 49 3.0 5.0 0.00 0.00 0.00 34 1022.1
20260510215812 69 358 6.0 9.0 0.00 0.00 0.00 33 1022.0
20260510215310 69 55 5.0 8.0 0.00 0.00 0.00 32 1022.0
20260510214807 69 72 2.0 5.0 0.00 0.00 0.00 32 1021.8
20260510214304 68 63 3.0 5.0 0.00 0.00 0.00 34 1021.8
20260510213800 68 26 3.0 10.0 0.00 0.00 0.00 32 1022.0
20260510213257 69 22 5.0 11.0 0.00 0.00 0.00 32 1022.0
20260510212754 69 36 3.0 6.0 0.00 0.00 0.00 34 1022.0
20260510212251 69 99 3.0 9.0 0.00 0.00 0.00 36 1021.9
20260510211748 69 24 4.0 8.0 0.00 0.00 0.00 33 1021.7
20260510211243 70 28 8.0 9.0 0.00 0.00 0.00 32 1021.7
20260510210740 69 31 2.0 6.0 0.00 0.00 0.00 32 1022.0
20260510210235 67 57 4.0 5.0 0.00 0.00 0.00 36 1022.2
20260510205734 66 26 4.0 9.0 0.00 0.00 0.00 39 1022.0
20260510205229 66 29 4.0 6.0 0.00 0.00 0.00 37 1022.0
20260510204726 66 49 4.0 6.0 0.00 0.00 0.00 40 1022.1
20260510204223 66 14 2.0 6.0 0.00 0.00 0.00 36 1022.3
20260510203720 66 36 7.0 7.0 0.00 0.00 0.00 39 1022.2
20260510203218 66 9 7.0 8.0 0.00 0.00 0.00 37 1021.9
20260510202717 66 51 4.0 6.0 0.00 0.00 0.00 39 1022.2
20260510202212 66 344 4.0 9.0 0.00 0.00 0.00 36 1022.2
20260510201710 66 30 4.0 6.0 0.00 0.00 0.00 39 1022.0
20260510201207 66 72 4.0 4.0 0.00 0.00 0.00 38 1022.2
20260510200703 66 50 4.0 6.0 0.00 0.00 0.00 38 1022.3
20260510200201 66 56 4.0 6.0 0.00 0.00 0.00 38 1022.5
20260510195658 65 33 5.0 9.0 0.00 0.00 0.00 36 1022.5
20260510195155 66 31 3.0 5.0 0.00 0.00 0.00 42 1022.4
20260510194654 65 14 2.0 8.0 0.00 0.00 0.00 37 1022.6
20260510194150 66 32 5.0 10.0 0.00 0.00 0.00 37 1022.6
20260510193646 66 59 2.0 4.0 0.00 0.00 0.00 38 1022.4
20260510193141 65 80 2.0 7.0 0.00 0.00 0.00 35 1022.8
20260510192637 66 101 3.0 6.0 0.00 0.00 0.00 40 1022.7
20260510192132 66 322 2.0 6.0 0.00 0.00 0.00 36 1022.6
20260510191629 65 33 2.0 3.0 0.00 0.00 0.00 36 1022.7
20260510191126 65 23 4.0 6.0 0.00 0.00 0.00 37 1022.8
20260510190623 65 23 4.0 7.0 0.00 0.00 0.00 36 1022.7
20260510190120 66 65 2.0 6.0 0.00 0.00 0.00 38 1022.6
20260510185616 66 38 5.0 5.0 0.00 0.00 0.00 38 1022.6
20260510185115 66 64 4.0 9.0 0.00 0.00 0.00 35 1022.4
20260510184611 66 29 3.0 7.0 0.00 0.00 0.00 35 1022.4
20260510184107 66 30 2.0 7.0 0.00 0.00 0.00 35 1022.4
20260510183602 66 22 1.0 6.0 0.00 0.00 0.00 36 1022.5
20260510183058 66 44 2.0 5.0 0.00 0.00 0.00 35 1022.5
20260510182556 66 79 2.0 8.0 0.00 0.00 0.00 40 1022.4
20260510182056 65 333 6.0 8.0 0.00 0.00 0.00 33 1022.6
20260510181554 65 34 4.0 8.0 0.00 0.00 0.00 35 1022.7
20260510181049 65 29 4.0 7.0 0.00 0.00 0.00 35 1022.6
20260510180546 64 335 3.0 6.0 0.00 0.00 0.00 33 1022.8
20260510180044 65 3 7.0 7.0 0.00 0.00 0.00 36 1022.8
20260510175539 66 40 7.0 7.0 0.00 0.00 0.00 38 1022.9
20260510175035 66 63 3.0 4.0 0.00 0.00 0.00 38 1022.7
20260510174534 65 41 4.0 4.0 0.00 0.00 0.00 38 1022.8
20260510174030 65 25 2.0 9.0 0.00 0.00 0.00 35 1022.7
20260510173525 65 340 6.0 12.0 0.00 0.00 0.00 34 1022.6
20260510173022 65 44 6.0 10.0 0.00 0.00 0.00 35 1022.5
20260510172518 65 38 2.0 5.0 0.00 0.00 0.00 35 1022.6
20260510172015 65 88 2.0 5.0 0.00 0.00 0.00 35 1022.7
20260510171511 65 59 2.0 10.0 0.00 0.00 0.00 35 1022.6
20260510171008 65 66 3.0 6.0 0.00 0.00 0.00 40 1022.5
20260510170505 65 347 2.0 8.0 0.00 0.00 0.00 37 1022.7
20260510170000 65 45 4.0 9.0 0.00 0.00 0.00 35 1022.7
20260510165451 66 355 4.0 6.0 0.00 0.00 0.00 35 1022.6
20260510164948 65 342 6.0 9.0 0.00 0.00 0.00 33 1022.4
20260510164446 64 41 4.0 9.0 0.00 0.00 0.00 39 1022.6
20260510163940 64 344 5.0 14.0 0.00 0.00 0.00 35 1022.4
20260510163436 65 321 4.0 9.0 0.00 0.00 0.00 36 1022.3
20260510162931 65 325 8.0 9.0 0.00 0.00 0.00 37 1022.3
20260510162428 65 60 6.0 10.0 0.00 0.00 0.00 37 1022.3
20260510161924 64 61 5.0 11.0 0.00 0.00 0.00 39 1022.2
20260510161420 64 118 3.0 6.0 0.00 0.00 0.00 39 1022.3
20260510160918 64 48 5.0 7.0 0.00 0.00 0.00 39 1022.2
20260510160415 64 52 3.0 9.0 0.00 0.00 0.00 37 1022.2
20260510155908 64 27 4.0 5.0 0.00 0.00 0.00 40 1022.2
20260510155405 63 51 5.0 6.0 0.00 0.00 0.00 40 1022.3
20260510154901 62 31 0.0 8.0 0.00 0.00 0.00 41 1022.4
20260510154357 62 65 7.0 10.0 0.00 0.00 0.00 42 1022.3
20260510153851 61 54 3.0 7.0 0.00 0.00 0.00 43 1022.0
20260510153348 61 33 7.0 13.0 0.00 0.00 0.00 41 1022.1
20260510152844 62 52 5.0 8.0 0.00 0.00 0.00 42 1022.1
20260510152342 61 64 3.0 4.0 0.00 0.00 0.00 42 1022.1
20260510151838 61 50 5.0 6.0 0.00 0.00 0.00 40 1022.0
20260510151336 61 64 5.0 9.0 0.00 0.00 0.00 39 1021.9
20260510150831 61 67 4.0 11.0 0.00 0.00 0.00 42 1021.7
20260510150327 62 73 6.0 11.0 0.00 0.00 0.00 38 1021.9
20260510145824 63 56 4.0 5.0 0.00 0.00 0.00 42 1021.9
20260510145320 62 66 3.0 7.0 0.00 0.00 0.00 42 1021.8
20260510144817 63 66 4.0 7.0 0.00 0.00 0.00 43 1021.8
20260510144314 61 51 5.0 6.0 0.00 0.00 0.00 43 1021.8
20260510143813 60 32 4.0 9.0 0.00 0.00 0.00 43 1021.9
20260510143310 59 66 3.0 7.0 0.00 0.00 0.00 44 1022.2
20260510142807 59 50 4.0 6.0 0.00 0.00 0.00 46 1022.0
20260510142306 59 53 4.0 6.0 0.00 0.00 0.00 45 1022.0
20260510141801 58 38 6.0 6.0 0.00 0.00 0.00 46 1022.0
20260510141258 59 45 4.0 11.0 0.00 0.00 0.00 44 1022.1
20260510140755 59 42 7.0 11.0 0.00 0.00 0.00 43 1022.0
20260510140250 59 19 2.0 8.0 0.00 0.00 0.00 45 1021.8
20260510135744 59 65 3.0 6.0 0.00 0.00 0.00 45 1022.0
20260510135240 58 15 2.0 8.0 0.00 0.00 0.00 46 1021.9
20260510134737 57 65 4.0 7.0 0.00 0.00 0.00 46 1021.9
20260510134234 57 46 8.0 9.0 0.00 0.00 0.00 46 1021.6
20260510133730 57 37 7.0 9.0 0.00 0.00 0.00 48 1021.6
20260510133226 57 4 2.0 6.0 0.00 0.00 0.00 48 1021.7
20260510132722 57 41 6.0 6.0 0.00 0.00 0.00 49 1021.8
20260510132220 56 28 5.0 9.0 0.00 0.00 0.00 48 1021.6
20260510131717 57 4 2.0 9.0 0.00 0.00 0.00 47 1021.3
20260510131215 57 32 5.0 6.0 0.00 0.00 0.00 46 1021.3
20260510130710 56 46 3.0 9.0 0.00 0.00 0.00 46 1021.1
20260510130208 56 33 6.0 8.0 0.00 0.00 0.00 46 1021.0
20260510125704 56 50 5.0 7.0 0.00 0.00 0.00 46 1021.1
20260510125200 56 46 6.0 8.0 0.00 0.00 0.00 46 1020.9
20260510124652 56 75 3.0 9.0 0.00 0.00 0.00 47 1020.8
20260510124149 56 30 8.0 9.0 0.00 0.00 0.00 48 1020.8
20260510123644 56 33 4.0 7.0 0.00 0.00 0.00 47 1020.6
20260510123141 56 30 2.0 7.0 0.00 0.00 0.00 48 1020.5
20260510122637 56 37 4.0 10.0 0.00 0.00 0.00 47 1020.3
20260510122133 56 34 6.0 6.0 0.00 0.00 0.00 49 1020.2
20260510121630 56 38 5.0 6.0 0.00 0.00 0.00 48 1020.2
20260510121127 55 20 0.0 7.0 0.00 0.00 0.00 49 1020.0
20260510120625 55 48 3.0 6.0 0.00 0.00 0.00 49 1019.5
20260510120120 55 58 6.0 7.0 0.00 0.00 0.00 49 1019.3
20260510115617 56 61 4.0 9.0 0.00 0.00 0.00 47 1019.3
20260510115115 56 39 4.0 8.0 0.00 0.00 0.00 47 1019.5
20260510114610 56 25 7.0 10.0 0.00 0.00 0.00 47 1019.2
20260510114106 56 19 2.0 9.0 0.00 0.00 0.00 47 1019.1
20260510113602 56 23 5.0 8.0 0.00 0.00 0.00 47 1019.2
20260510113100 56 57 3.0 10.0 0.00 0.00 0.00 47 1019.0
20260510112556 56 44 9.0 10.0 0.00 0.00 0.00 48 1018.9
20260510112052 56 52 6.0 8.0 0.00 0.00 0.00 49 1018.9
20260510111549 56 39 8.0 10.0 0.00 0.00 0.00 48 1019.2
20260510111045 57 356 5.0 7.0 0.00 0.00 0.00 47 1019.0
20260510110541 57 36 6.0 11.0 0.00 0.00 0.00 48 1018.9
20260510110037 57 33 5.0 8.0 0.00 0.00 0.00 48 1018.6
20260510105533 57 27 5.0 8.0 0.00 0.00 0.00 48 1018.5
20260510105028 57 53 4.0 7.0 0.00 0.00 0.00 48 1018.5
20260510104525 57 34 6.0 8.0 0.00 0.00 0.00 47 1018.6
20260510104020 57 47 5.0 9.0 0.00 0.00 0.00 48 1018.4
20260510103518 58 36 9.0 10.0 0.00 0.00 0.00 48 1018.5
20260510103014 58 60 4.0 8.0 0.00 0.00 0.00 49 1018.5
20260510102510 58 35 2.0 9.0 0.00 0.00 0.00 48 1018.3
20260510102006 58 37 4.0 6.0 0.00 0.00 0.00 49 1017.8
20260510101504 58 46 3.0 8.0 0.00 0.00 0.00 49 1017.7
20260510101002 58 28 4.0 8.0 0.00 0.00 0.00 49 1017.8
20260510100458 58 32 5.0 9.0 0.00 0.00 0.00 49 1017.8
20260510095955 58 50 8.0 9.0 0.00 0.00 0.00 49 1017.5
20260510095450 59 45 5.0 8.0 0.00 0.00 0.00 48 1017.4
20260510094949 59 55 6.0 9.0 0.00 0.00 0.00 48 1017.6
20260510094445 59 15 3.0 9.0 0.00 0.00 0.00 49 1017.4
20260510093941 59 347 6.0 9.0 0.00 0.00 0.00 49 1017.5
20260510093437 59 49 8.0 11.0 0.00 0.00 0.00 50 1017.5
20260510092934 59 26 6.0 9.0 0.00 0.00 0.00 52 1017.6
20260510092431 59 39 5.0 6.0 0.00 0.00 0.00 54 1017.7
20260510091930 59 35 6.0 10.0 0.00 0.00 0.00 54 1017.3
20260510091427 60 49 4.0 9.0 0.00 0.00 0.00 54 1017.2
20260510090924 60 56 5.0 7.0 0.00 0.00 0.00 54 1017.2
20260510090420 60 10 1.0 10.0 0.00 0.00 0.00 54 1017.4
20260510085916 60 38 6.0 10.0 0.00 0.00 0.00 56 1017.0
20260510085412 60 76 2.0 10.0 0.00 0.00 0.00 58 1016.9
20260510084907 60 67 4.0 9.0 0.00 0.00 0.00 60 1016.5
20260510084405 61 24 8.0 12.0 0.00 0.00 0.00 59 1016.7
20260510083901 61 31 6.0 12.0 0.00 0.00 0.00 60 1016.7
20260510083358 61 52 6.0 10.0 0.00 0.00 0.00 61 1016.7
20260510082853 61 32 5.0 9.0 0.00 0.00 0.00 61 1016.7
20260510082351 62 55 3.0 9.0 0.00 0.00 0.00 61 1016.4
20260510081849 62 29 5.0 9.0 0.00 0.00 0.00 61 1016.5
20260510081345 62 38 6.0 8.0 0.00 0.00 0.00 61 1016.1
20260510080842 62 35 1.0 7.0 0.00 0.00 0.00 61 1016.2
20260510080337 62 43 3.0 5.0 0.00 0.00 0.00 62 1016.4
20260510075834 62 339 2.0 3.0 0.00 0.00 0.00 62 1016.2
20260510075332 62 45 1.0 4.0 0.00 0.00 0.00 62 1016.1
20260510074828 62 18 2.0 4.0 0.00 0.00 0.00 62 1015.9
20260510074326 63 29 2.0 3.0 0.00 0.00 0.00 62 1016.0
20260510073822 63 40 4.0 4.0 0.00 0.00 0.00 61 1015.9
20260510073318 63 35 4.0 4.0 0.00 0.00 0.00 62 1016.0
20260510072814 63 44 1.0 2.0 0.00 0.00 0.00 61 1015.8
20260510072311 63 39 1.0 3.0 0.00 0.00 0.00 60 1015.9
20260510071807 63 348 2.0 4.0 0.00 0.00 0.00 60 1015.8
20260510071303 63 355 3.0 3.0 0.00 0.00 0.00 61 1015.8
20260510070803 63 354 2.0 3.0 0.00 0.00 0.00 60 1015.7
20260510070259 63 2 2.0 2.0 0.00 0.00 0.00 60 1015.5
20260510065759 63 53 2.0 4.0 0.00 0.00 0.00 60 1015.4
20260510065256 63 30 2.0 3.0 0.00 0.00 0.00 60 1015.3
20260510064752 62 33 2.0 3.0 0.00 0.00 0.00 61 1015.2
20260510064251 62 16 1.0 2.0 0.00 0.00 0.00 66 1014.9
20260510063746 63 89 1.0 2.0 0.00 0.00 0.00 64 1015.1
20260510063242 63 60 2.0 3.0 0.00 0.00 0.00 60 1015.2
20260510062739 64 62 2.0 3.0 0.00 0.00 0.00 59 1015.3
20260510062235 64 53 1.0 4.0 0.00 0.00 0.00 57 1015.2
20260510061730 64 49 4.0 4.0 0.00 0.00 0.00 56 1015.2
20260510061228 65 45 4.0 4.0 0.00 0.00 0.00 56 1015.5
20260510060724 64 34 3.0 5.0 0.00 0.00 0.00 57 1015.5
20260510060221 64 33 2.0 4.0 0.00 0.00 0.00 58 1015.4
20260510055717 63 8 2.0 4.0 0.00 0.00 0.00 61 1015.4
20260510055216 63 31 1.0 2.0 0.00 0.00 0.00 61 1015.4
20260510054715 64 89 1.0 1.0 0.00 0.00 0.00 59 1015.3
20260510054212 64 37 0.0 1.0 0.00 0.00 0.00 59 1015.2
20260510053711 64 70 3.0 5.0 0.00 0.00 0.00 58 1015.1
20260510053208 65 89 0.0 2.0 0.00 0.00 0.00 61 1014.9
20260510052704 65 52 2.0 3.0 0.00 0.00 0.00 60 1014.9
20260510052200 65 49 0.0 1.0 0.00 0.00 0.00 60 1014.9
20260510051656 65 186 2.0 3.0 0.00 0.00 0.00 58 1014.8
20260510051153 65 81 2.0 3.0 0.00 0.00 0.00 62 1014.7
20260510050650 66 60 1.0 2.0 0.00 0.00 0.00 61 1014.7
20260510050147 66 112 0.0 2.0 0.00 0.00 0.00 61 1014.4
20260510045644 66 89 1.0 3.0 0.00 0.00 0.00 61 1014.3
20260510045140 66 81 2.0 3.0 0.00 0.00 0.00 61 1014.1
20260510044636 66 73 2.0 2.0 0.00 0.00 0.00 60 1014.1
20260510044134 66 95 1.0 2.0 0.00 0.00 0.00 62 1013.9
20260510043630 66 127 2.0 2.0 0.00 0.00 0.00 59 1013.4
20260510043126 67 102 1.0 2.0 0.00 0.00 0.00 60 1013.3
20260510042624 67 67 2.0 4.0 0.00 0.00 0.00 59 1013.0
20260510042119 67 56 2.0 4.0 0.00 0.00 0.00 60 1012.8
20260510041617 67 63 3.0 4.0 0.00 0.00 0.00 60 1012.8
20260510041114 66 68 2.0 4.0 0.00 0.00 0.00 60 1012.7
20260510040611 66 43 3.0 3.0 0.00 0.00 0.00 61 1012.9
20260510040108 66 50 0.0 2.0 0.00 0.00 0.00 61 1012.7
20260510035604 66 47 2.0 2.0 0.00 0.00 0.00 64 1012.8
20260510035104 66 358 0.0 2.0 0.00 0.00 0.00 65 1012.8
20260510034602 66 17 1.0 2.0 0.00 0.00 0.00 63 1012.8
20260510034058 66 32 0.0 1.0 0.00 0.00 0.00 63 1012.8
20260510033555 67 358 0.0 1.0 0.00 0.00 0.00 62 1012.8
20260510033052 68 332 1.0 1.0 0.00 0.00 0.00 59 1012.7
20260510032549 68 157 0.0 1.0 0.00 0.00 0.00 56 1012.7
20260510032044 68 135 0.0 2.0 0.00 0.00 0.00 54 1012.6
20260510031539 68 200 0.0 1.0 0.00 0.00 0.00 55 1012.6
20260510031035 68 316 3.0 3.0 0.00 0.00 0.00 55 1012.5
20260510030531 68 343 2.0 2.0 0.00 0.00 0.00 54 1012.8
20260510030028 69 243 1.0 3.0 0.00 0.00 0.00 53 1012.7
20260510025525 68 354 2.0 3.0 0.00 0.00 0.00 53 1012.4
20260510025023 68 34 0.0 4.0 0.00 0.00 0.00 55 1012.2
20260510024519 68 346 2.0 2.0 0.00 0.00 0.00 55 1012.2
20260510024015 68 37 0.0 1.0 0.00 0.00 0.00 55 1012.0
20260510023511 68 359 1.0 2.0 0.00 0.00 0.00 56 1011.8
20260510023009 69 50 0.0 0.0 0.00 0.00 0.00 53 1011.6
20260510022508 69 75 1.0 2.0 0.00 0.00 0.00 51 1011.5
20260510022008 70 58 2.0 2.0 0.00 0.00 0.00 50 1011.6
20260510021505 70 76 2.0 3.0 0.00 0.00 0.00 49 1011.5
20260510021002 71 66 1.0 2.0 0.00 0.00 0.00 48 1011.2
20260510020456 71 341 2.0 5.0 0.00 0.00 0.00 47 1010.9
20260510015952 72 355 3.0 7.0 0.00 0.00 0.00 46 1011.0
20260510015448 72 324 2.0 11.0 0.00 0.00 0.00 46 1010.9
20260510014943 71 53 3.0 10.0 0.00 0.00 0.00 47 1010.8
20260510014441 71 21 2.0 3.0 0.00 0.00 0.00 48 1010.7
20260510013938 71 3 2.0 3.0 0.00 0.00 0.00 48 1010.8
20260510013432 71 16 2.0 3.0 0.00 0.00 0.00 48 1010.5
20260510012928 71 329 2.0 4.0 0.00 0.00 0.00 48 1010.6
20260510012423 71 42 1.0 4.0 0.00 0.00 0.00 49 1010.5
20260510011918 72 30 0.0 2.0 0.00 0.00 0.00 48 1010.2
20260510011413 72 46 2.0 3.0 0.00 0.00 0.00 47 1010.3
20260510010910 73 49 2.0 2.0 0.00 0.00 0.00 46 1010.3
20260510010407 73 345 2.0 3.0 0.00 0.00 0.00 45 1010.4
20260510005904 73 2 4.0 4.0 0.00 0.00 0.00 45 1010.3
20260510005400 74 4 2.0 6.0 0.00 0.00 0.00 44 1010.2
20260510004858 74 352 4.0 6.0 0.00 0.00 0.00 44 1010.1
20260510004355 75 339 3.0 5.0 0.00 0.00 0.00 43 1009.8
20260510003853 76 342 5.0 7.0 0.00 0.00 0.00 42 1009.7
20260510003349 76 322 1.0 5.0 0.00 0.00 0.00 42 1009.6
20260510002848 77 324 5.0 8.0 0.00 0.00 0.00 41 1009.5
20260510002346 77 356 4.0 9.0 0.00 0.00 0.00 41 1009.4
20260510001842 77 345 5.0 8.0 0.00 0.00 0.00 40 1009.4
20260510001340 77 353 5.0 13.0 0.00 0.00 0.00 39 1009.3
20260510000836 77 21 3.0 10.0 0.00 0.00 0.00 40 1009.1
20260510000334 77 357 6.0 13.0 0.00 0.00 0.00 39 1009.2
20260509235830 78 17 3.0 6.0 0.00 0.00 0.00 39 1009.2
20260509235327 77 307 6.0 11.0 0.00 0.00 0.00 38 1009.2
20260509234822 77 317 4.0 7.0 0.00 0.00 0.00 43 1009.0
20260509234320 77 339 1.0 4.0 0.00 0.00 0.00 43 1009.1
20260509233818 77 280 2.0 3.0 0.00 0.00 0.00 45 1008.8
20260509233315 77 318 2.0 2.0 0.00 0.00 0.00 46 1008.9
20260509232811 78 283 3.0 4.0 0.00 0.00 0.00 46 1008.8
20260509232309 78 253 2.0 4.0 0.00 0.00 0.00 45 1008.6